Simultaneous Nadir Overpasses (SNOs) Predictions

Prediction of SNOs between NOAA-20 and AQUA Satellite Orbit:

Table of predicted SNOs for the next 14.0 days since TLE Epoch: 12/5/2020
Index Date (NOAA-20) Time (NOAA-20) Lat,Lon (NOAA-20) SZA (NOAA-20 ) Date (AQUA) Time (AQUA) Lat,Lon (AQUA) SZA (AQUA ) Distance(km) Time Diff (sec)
1 12/06/2020 13:39:48 74.01,-151.57 120.91 12/06/2020 13:41:02 73.96,-151.47 120.83 6.33 74
2 12/06/2020 14:29:47 -76.23, 22.29 61.52 12/06/2020 14:29:44 -76.23, 22.25 61.50 1.34 3
3 12/09/2020 05:56:18 75.27, -32.39 119.90 12/09/2020 05:57:05 75.27, -32.33 119.84 1.82 47
4 12/09/2020 06:46:38 -76.46, 138.88 61.44 12/09/2020 06:46:08 -76.46, 138.88 61.41 0.10 30
5 12/11/2020 22:13:05 75.64, 84.53 119.78 12/11/2020 22:13:25 75.65, 84.61 119.74 2.36 20
6 12/11/2020 23:03:27 -76.72,-104.34 61.47 12/11/2020 23:02:30 -76.72,-104.32 61.42 0.58 57
7 12/14/2020 13:39:32 -74.92, 30.84 59.21 12/14/2020 13:40:42 -74.93, 30.87 59.29 1.13 70
8 12/14/2020 14:29:52 76.05,-158.35 119.55 12/14/2020 14:29:45 76.06,-158.28 119.54 2.00 7
9 12/17/2020 05:56:17 -75.44, 148.12 59.58 12/17/2020 05:57:00 -75.44, 148.13 59.63 0.50 43



Historial Predications of SNOs between NOAA-20 and AQUA
